Patuxent River, MD

5:24 PM EDT on September 26, 2017 (GMT -0400)
Patuxent River Naval Air Station

Weather History for KNHK - March, 2013

Change the Weather History Date:

Wednesday, March 27, 2013

  Actual Average Record
Temperature  
Mean Temperature 45 °F -  
Max Temperature 52 °F 58 °F 84 °F (2007)
Min Temperature 39 °F 39 °F 26 °F (2001)
Degree Days  
Heating Degree Days 20    
Moisture  
Dew Point 26 °F    
Average Humidity 49    
Maximum Humidity 62    
Minimum Humidity 35    
Precipitation  
Precipitation 0.00 in - - ()
Sea Level Pressure  
Sea Level Pressure 30.04 in    
Wind  
Wind Speed 13 mph (West)    
Max Wind Speed 21 mph    
Max Gust Speed 31 mph    
Visibility 10 miles    
Events Rain    
Averages and records for this station are not official NWS values.
T = Trace of Precipitation, MM = Missing Value Source: NWS Daily Summary

Daily Weather History Graph

Daily Weather History Graph

Search for Another Location

Airport or City:

Trip Planner

Search our weather history database for the weather conditions in past years. The results will help you decide how hot, cold, wet, or windy it might be!

Date:

Astronomy

Mar. 27, 2013 Rise Set
Actual Time 6:58 AM EDT 7:24 PM EDT
Civil Twilight 6:31 AM EDT 7:50 PM EDT
Nautical Twilight 6:00 AM EDT 8:22 PM EDT
Astronomical Twilight 5:28 AM EDT 8:54 PM EDT
Moon 8:04 PM EDT (3/27) 6:48 AM EDT (3/27)
Length of Visible Light 13h 19m
Length of Day
12h 26m
Full, 100% of the Moon is Illuminated
Mar 27
Full
Apr 3
Last Quarter
Apr 10
New
Apr 18
First Quarter
Apr 25
Full

Hourly Weather History & Observations

Time (EDT) Temp. Windchill Dew Point Humidity Pressure Visibility Wind Dir Wind Speed Gust Speed Precip Events Conditions
12:52 AM 42.1 °F 36.1 °F 27.0 °F 55% 29.98 in 10.0 mi West 10.4 mph - N/A   Mostly Cloudy
1:52 AM 42.1 °F 35.7 °F 27.0 °F 55% 29.98 in 10.0 mi West 11.5 mph - N/A   Overcast
2:52 AM 39.9 °F 33.4 °F 27.0 °F 60% 29.98 in 10.0 mi West 10.4 mph - N/A   Overcast
3:52 AM 39.9 °F 33.4 °F 27.0 °F 60% 29.99 in 10.0 mi West 10.4 mph - N/A   Mostly Cloudy
4:52 AM 39.9 °F 32.9 °F 27.0 °F 60% 29.99 in 10.0 mi West 11.5 mph - N/A   Overcast
5:10 AM 39.2 °F 31.6 °F 26.6 °F 61% 30.00 in 10.0 mi West 12.7 mph - N/A   Scattered Clouds
5:52 AM 39.0 °F 31.4 °F 27.0 °F 62% 30.01 in 10.0 mi West 12.7 mph - N/A   Scattered Clouds
6:52 AM 39.9 °F 32.1 °F 27.0 °F 60% 30.02 in 10.0 mi West 13.8 mph - N/A   Scattered Clouds
7:52 AM 39.9 °F 32.5 °F 26.1 °F 58% 30.05 in 10.0 mi West 12.7 mph - N/A   Scattered Clouds
8:52 AM 43.0 °F 36.8 °F 28.0 °F 56% 30.06 in 10.0 mi WNW 11.5 mph - N/A   Scattered Clouds
9:52 AM 45.0 °F 37.9 °F 28.0 °F 52% 30.07 in 10.0 mi WNW 16.1 mph - N/A   Partly Cloudy
10:52 AM 46.9 °F - 28.0 °F 48% 30.06 in 10.0 mi WNW 16.1 mph - N/A   Scattered Clouds
11:52 AM 50.0 °F - 27.0 °F 41% 30.06 in 10.0 mi NW 16.1 mph 25.3 mph N/A   Scattered Clouds
12:52 PM 51.1 °F - 28.0 °F 41% 30.05 in 10.0 mi NW 20.7 mph - N/A   Scattered Clouds
1:52 PM 50.0 °F - 28.0 °F 43% 30.04 in 10.0 mi NW 18.4 mph - N/A   Mostly Cloudy
2:52 PM 51.1 °F - 27.0 °F 39% 30.03 in 10.0 mi West 15.0 mph 19.6 mph N/A   Mostly Cloudy
3:03 PM 46.4 °F 39.8 °F 26.6 °F 46% 30.03 in 8.0 mi West 16.1 mph 31.1 mph 0.00 in Rain Light Rain
3:46 PM 48.2 °F - 24.8 °F 40% 30.02 in 10.0 mi WNW 19.6 mph 26.5 mph 0.00 in   Mostly Cloudy
3:52 PM 50.0 °F - 23.0 °F 35% 30.02 in 10.0 mi WNW 16.1 mph 26.5 mph 0.00 in   Mostly Cloudy
4:52 PM 48.9 °F - 26.1 °F 41% 30.03 in 10.0 mi NW 19.6 mph 26.5 mph N/A   Mostly Cloudy
5:52 PM 48.9 °F - 25.0 °F 39% 30.05 in 10.0 mi WNW 15.0 mph - N/A   Scattered Clouds
6:52 PM 46.9 °F - 28.0 °F 48% 30.06 in 10.0 mi WNW 9.2 mph - N/A   Scattered Clouds
7:52 PM 45.0 °F 39.7 °F 24.1 °F 44% 30.07 in 10.0 mi West 10.4 mph - N/A   Scattered Clouds
8:52 PM 44.1 °F 38.6 °F 23.0 °F 43% 30.09 in 10.0 mi West 10.4 mph - N/A   Scattered Clouds
9:52 PM 43.0 °F 36.8 °F 24.1 °F 47% 30.11 in 10.0 mi West 11.5 mph - N/A   Clear
10:52 PM 43.0 °F 36.8 °F 24.1 °F 47% 30.11 in 10.0 mi West 11.5 mph - N/A   Clear
11:52 PM 39.9 °F 33.9 °F 25.0 °F 55% 30.11 in 10.0 mi West 9.2 mph - N/A   Clear